OpenBCM V1.08-5-g2f4a (Linux)

Packet Radio Mailbox

IZ3LSV

[San Dona' di P. JN]

 Login: GUEST





  
LU9DCE > KEPS     03.03.18 17:13l 259 Lines 12872 Bytes #999 (0) @ WW
BID : 33390_LU9DCE
Read: GUEST
Subj: SAT TLE OF 3
Path: IZ3LSV<IR2UBX<EA2RCF<LU9DCE
Sent: 180303/1601Z @:LU9DCE.TOR.BA.ARG.SOAM #:33390 [TORTUGUITAS] FBB7.07
From: LU9DCE@LU9DCE.TOR.BA.ARG.SOAM
To  : KEPS@WW


            __    _  _  ___  ____   ___  ____    ____  ____  ____
           (  )  / )( \/ _ \(    \ / __)(  __)  (  _ \(  _ \/ ___)
           / (_/\) \/ (\__  )) D (( (__  ) _)    ) _ ( ) _ (\___ \
           \____/\____/(___/(____/ \___)(____)  (____/(____/(____/
               ESTACION DE PACKET RADIO - BUENOS AIRES (GF05OM)
                   BOLETINES INFORMATIVOS PROGRAMADOS (BIP)
                    LU9DCE@GMX.COM - RF 147070 @ 1200 BAUD
                           telnet lu9dce.dynu.com
             BBS port 6300 / NODE port 3694 / DXCLUSTER port 9000

+------------------------------------------------------------------------------+
OSCAR 7
1 07530U 74089B   18062.52657933 -.00000054  00000-0 -60329-4 0  9995
2 07530 101.6735  31.4893 0012026 178.3146 291.3887 12.53631331981351
OSCAR 11 (UoSAT 2)
1 14781U 84021B   18061.93367962 +.00000055 +00000-0 +13017-4 0  9993
2 14781 097.6636 102.6015 0009958 074.9108 285.3208 14.82983900807697
OSCAR 19 (LUSAT)
1 20442U 90005G   18061.86327796 +.00000009 +00000-0 +19546-4 0  9998
2 20442 098.6015 001.0626 0012887 102.7520 257.5105 14.32888010468605
KITSAT B
1 22825U 93061C   18061.86880345 -.00000018  00000-0  10944-4 0  9998
2 22825  98.8506  36.1275 0007496 301.0140  59.0305 14.30023010274375
POSAT 1
1 22826U 93061D   18061.91021700 -.00000021 +00000-0 +95216-5 0  9997
2 22826 098.8447 036.2205 0007924 289.2645 070.7679 14.30353944274317
RADIO ROSTO
1 23439U 94085A   18061.74613883 -.00000046 +00000-0 -88375-4 0  9990
2 23439 064.8163 160.9806 0160871 201.0913 317.9554 11.27566573954566
JAS 2
1 24278U 96046B   18061.82357346 -.00000024 +00000-0 +10682-4 0  9990
2 24278 098.5276 275.1723 0350822 027.0299 334.8642 13.53082126063604
TECHSAT 1B
1 25397U 98043D   18061.90557247 -.00000010  00000-0  14511-4 0  9993
2 25397  98.6401   4.1608 0001244  22.6744 337.4489 14.23640622 20607
ISS (ZARYA)
1 25544U 98067A   18061.87209683 +.00001871 +00000-0 +35447-4 0  9993
2 25544 051.6407 188.7184 0003210 146.1334 357.8009 15.54174727101984
PCSAT
1 26931U 01043C   18061.66250359 -.00000007 +00000-0 +28943-4 0  9999
2 26931 067.0514 144.2766 0006157 282.6621 077.3792 14.30495497857249
SAUDISAT 1C
1 27607U 02058C   18062.20441515  .00000001  00000-0  20790-4 0  9999
2 27607  64.5552  53.9779 0052711 353.4651   6.5758 14.75424169817329
CUTE-1
1 27844U 03031E   18061.92891893 +.00000047 +00000-0 +40971-4 0  9993
2 27844 098.6892 072.1412 0009053 324.4334 035.6240 14.22097321761056
CUBESAT XI 4
1 27848U 03031J   18061.99950274  .00000028  00000-0  32783-4 0  9994
2 27848  98.6981  72.5721 0009119 335.0576  25.0159 14.21703461760975
MOZHAYETS 4
1 27939U 03042A   18062.56889098  .00000052  00000-0  17845-4 0  9995
2 27939  97.9720 204.5393 0014189 121.1027 305.7312 14.66661193771334
CUBESAT XI 5
1 28895U 05043F   18061.89453515 +.00000118 +00000-0 +31486-4 0  9996
2 28895 097.8922 217.7510 0017744 049.0026 311.2708 14.63514013658096
CUTE-1.7+APD II
1 32785U 08021C   18061.87364452 +.00000185 +00000-0 +25696-4 0  9997
2 32785 097.5524 079.1014 0013948 036.7508 323.4663 14.88069151533365
DELFI C3
1 32789U 08021G   18061.73250929 +.00000593 +00000-0 +45073-4 0  9993
2 32789 097.5259 119.1839 0011010 304.8489 055.1702 15.05783905535667
SEEDS
1 32791U 08021J   18061.73209707  .00000368  00000-0  43110-4 0  9994
2 32791  97.5440  84.0731 0013812  19.6110 340.5637 14.90478252533651
YUBELEINY
1 32953U 08025A   18062.52429483  .00000019  00000-0  67536-4 0  9992
2 32953  82.4989  78.3921 0020364  81.2507 279.0878 12.43082111443647
PRISM (HITOMI)
1 33493U 09002B   18062.43295402 -.00000151  00000-0 -77478-5 0  9996
2 33493  98.1413 320.4112 0014743 311.5897  48.4047 14.96089180494534
KKS-1 (KISEKI)
1 33499U 09002H   18061.90084087 +.00000100 +00000-0 +22800-4 0  9998
2 33499 098.3503 240.2379 0007972 271.0585 088.9710 14.75298895489088
SWISSCUBE
1 35932U 09051B   18062.20367152  .00000102  00000-0  34109-4 0  9994
2 35932  98.5279 210.9147 0008041 167.6871 192.4523 14.56125802448014
BEESAT
1 35933U 09051C   18061.89501814 +.00000086 +00000-0 +30420-4 0  9997
2 35933 098.5319 212.0779 0005946 178.7671 181.3542 14.56233496447999
ITUPSAT 1
1 35935U 09051E   18061.88986708 +.00000074 +00000-0 +28058-4 0  9998
2 35935 098.5432 212.3269 0008330 176.6595 183.4659 14.55414550447832
XIWANG-1 (HOPE-1)
1 36122U 09072B   18061.90952014 -.00000029 +00000-0 +33604-4 0  9990
2 36122 100.0828 081.4871 0007475 003.4040 356.7124 13.16343692394561
TISAT 1
1 36799U 10035E   18061.99801777  .00000357  00000-0  42475-4 0  9998
2 36799  98.0889 195.5154 0012239 191.1645 168.9302 14.90707696414335
JUGNU
1 37839U 11058B   18061.82024252  .00000327  00000-0  32571-4 0  9990
2 37839  19.9621 322.2390 0019034 154.3119 258.7722 14.12610818330317
SRMSAT
1 37841U 11058D   18062.26660043  .00000302  00000-0  21168-4 0  9999
2 37841  19.9732   6.5481 0011889  48.1127  75.5578 14.10599492329904
M-CUBED/EXP-1 PRIME
1 37855U 11061F   18061.98622546  .00001486  00000-0  83823-4 0  9992
2 37855 101.7257  70.1669 0177615  36.4982 324.8183 15.04106497345683
HORYU 2
1 38340U 12025D   18062.08311492  .00000162  00000-0  31966-4 0  9991
2 38340  98.3735  80.1228 0011552 182.4762 177.6391 14.75505844311462
STRAND 1
1 39090U 13009E   18061.84828827  .00000026  00000-0  24407-4 0  9996
2 39090  98.5317 269.5495 0008132 251.2326 108.7977 14.35012860262572
SOMP
1 39134U 13015E   18062.20359249  .00001148  00000-0  64161-4 0  9997
2 39134  64.8626 109.6686 0022656 225.0557 134.8733 15.18852696268801
BEESAT 3
1 39135U 13015F   18061.46004356  .00000693  00000-0  45363-4 0  9998
2 39135  64.8687 124.0628 0028619 247.1330 112.6774 15.16425995268462
BEESAT 2
1 39136U 13015G   18062.18430376  .00000735  00000-0  48115-4 0  9999
2 39136  64.8696 124.2329 0029243 247.0308 112.7732 15.15908897268529
CUBEBUG 1
1 39153U 13018D   18062.18999099  .00000184  00000-0  31078-4 0  9991
2 39153  97.9778 158.0758 0015659 291.0587  68.8950 14.80347025261900
ZACUBE
1 39417U 13066B   18062.16634086  .00000192  00000-0  30565-4 0  9996
2 39417  97.5995  96.4016 0060197 141.3780 219.1763 14.80882773231107
TRITON 1
1 39427U 13066M   18061.94297928 +.00000112 +00000-0 +26184-4 0  9996
2 39427 097.6386 064.9335 0112882 239.4112 119.5920 14.67616733228801
GOMX 1
1 39430U 13066Q   18061.93805819  .00000183  00000-0  42661-4 0  9999
2 39430  97.6875  46.5300 0150505 306.3298  52.4087 14.59031953227656
HUMSAT D
1 39433U 13066T   18062.19732601  .00000332  00000-0  38134-4 0  9995
2 39433  97.6181 122.2153 0032456  76.5576 283.9257 14.91761821232629
50 SAT
1 39436U 13066W   18062.31467948  .00073332  00000-0  84552-3 0  9995
2 39436  97.7127 190.0627 0006129 231.4302 128.6406 15.61690649236711
CUBEBUG 2
1 39440U 13066AA  18062.08855873  .00000157  00000-0  28991-4 0  9993
2 39440  97.6085  83.5929 0080677 179.0527 181.0851 14.75618677230272
FUNCUBE 1
1 39444U 13066AE  18061.87984170 +.00000245 +00000-0 +36643-4 0  9997
2 39444 097.6007 097.5199 0059415 138.1766 222.4011 14.81648626229327
UWE-3
1 39446U 13066AG  18062.29304803  .00000188  00000-0  31668-4 0  9993
2 39446  97.6027  89.7901 0070886 159.9919 200.4097 14.78151993229479
SPROUT
1 39770U 14029E   18062.52776622  .00000934  00000-0  11119-3 0  9998
2 39770  97.8727 164.5037 0008921 186.0442 174.0680 14.86692354204661
UNISAT 6
1 40012U 14033C   18062.16521540  .00000166  00000-0  32293-4 0  9995
2 40012  97.8243 302.2688 0058409 179.4373 180.6912 14.73770265199087
DUCHIFAT 1
1 40021U 14033M   18062.17336384  .00000426  00000-0  49762-4 0  9994
2 40021  97.9177 340.7023 0013225 161.8412 198.3280 14.90210947201162
QB50P1
1 40025U 14033R   18061.81384845 +.00000231 +00000-0 +30818-4 0  9999
2 40025 097.9086 337.4181 0012646 168.5493 191.6013 14.88645251200450
CHUBUSAT 1
1 40300U 14070C   18062.13540447  .00000683  00000-0  33435-4 0  9993
2 40300  97.3721 142.0690 0018556 275.8655 148.9299 15.21406102184156
NUDT-PHONESAT
1 40900U 15049B   18061.93235248 +.00001776 +00000-0 +83412-4 0  9997
2 40900 097.4429 071.4347 0014816 046.7439 313.5031 15.20845106135769
ZDPS 2A
1 40901U 15049C   18062.07696351  .00000789  00000-0  43372-4 0  9994
2 40901  97.4600  70.0903 0015098  51.2251 309.0329 15.16880856135575
ZDPS 2B
1 40902U 15049D   18062.16848162  .00000714  00000-0  39770-4 0  9999
2 40902  97.4491  68.3801 0015076  48.2734 311.9786 15.16686623135574
XW-2A
1 40903U 15049E   18062.54354008  .00001684  00000-0  44119-4 0  9993
2 40903  97.3971  96.3009 0015786  55.6800 304.5938 15.40060598137542
KAITUO 1A
1 40904U 15049F   18062.53433704  .00000719  00000-0  42066-4 0  9991
2 40904  97.4586  68.1023 0016181  47.9044  66.1441 15.14902133135508
OBJECT G
1 40905U 15049G   18061.93424104 +.00000358 +00000-0 +23354-4 0  9997
2 40905 097.4577 065.7674 0016958 042.9812 317.2741 15.13870750135347
XW-2C
1 40906U 15049H   18062.51697322  .00000581  00000-0  34549-4 0  9993
2 40906  97.4598  67.9584 0016166  41.2111 319.0339 15.15036741135495
XW-2D
1 40907U 15049J   18062.54561055  .00000613  00000-0  36112-4 0  9994
2 40907  97.4571  67.6972 0015498  39.3497 320.8858 15.15176240135504
LILACSAT 2
1 40908U 15049K   18061.96409040 +.00000338 +00000-0 +22521-4 0  9998
2 40908 097.4679 066.6196 0017156 041.4091 318.8437 15.13418971135304
XW-2F
1 40910U 15049M   18061.98083757  .00000955  00000-0  52646-4 0  9992
2 40910  97.4577  68.2671 0016177  37.5185 322.7174 15.16291968135368
XW-2B
1 40911U 15049N   18061.96496026  .00000604  00000-0  35660-4 0  9996
2 40911  97.4607  67.6238 0015448  41.7543 318.4865 15.15123895135316
